This is the latest recevied weather packets stored in our database for station/object WA6OOO. If no packets are shown the sender has not sent any weather packets the latest 10 day(s).
| Time | Temp. | Humidity | Pressure | Rain* | Wind** | Luminosity | Snow |
|---|---|---|---|---|---|---|---|
| 1777392257 | 16.67° C | 53% | 1021.7 hPa | 0 mm | - | 405 W/m² | - |
| 1777391952 | 16.11° C | 54% | 1021.6 hPa | 0 mm | - | 394 W/m² | - |
| 1777391647 | 16.11° C | 56% | 1021.6 hPa | 0 mm | - | 375 W/m² | - |
| 1777391344 | 15.56° C | 56% | 1021.8 hPa | 0 mm | - | 358 W/m² | - |
| 1777391041 | 15.56° C | 55% | 1021.6 hPa | 0 mm | - | 343 W/m² | - |
| 1777390736 | 15.56° C | 56% | 1021.8 hPa | 0 mm | - | 327 W/m² | - |
| 1777390433 | 15° C | 55% | 1021.5 hPa | 0 mm | - | 158 W/m² | - |
| 1777390129 | 15° C | 58% | 1021.6 hPa | 0 mm | - | 292 W/m² | - |
| 1777389826 | 14.44° C | 58% | 1021.6 hPa | 0 mm | - | 277 W/m² | - |
| 1777389524 | 14.44° C | 59% | 1021.5 hPa | 0 mm | - | 257 W/m² | - |
| 1777389220 | 14.44° C | 57% | 1021.4 hPa | 0 mm | - | 250 W/m² | - |
| 1777388918 | 14.44° C | 60% | 1021.5 hPa | 0 mm | - | 228 W/m² | - |
| 1777388614 | 15° C | 57% | 1021.5 hPa | 0 mm | - | 215 W/m² | - |
| 1777388311 | 15° C | 57% | 1021.6 hPa | 0 mm | - | 199 W/m² | - |
| 1777388010 | 14.44° C | 59% | 1021.5 hPa | 0 mm | - | 185 W/m² | - |
| 1777387707 | 14.44° C | 59% | 1021.4 hPa | 0 mm | - | 58 W/m² | - |
| 1777387404 | 13.89° C | 60% | 1021.5 hPa | 0 mm | - | 94 W/m² | - |
| 1777387103 | 13.89° C | 60% | 1021.4 hPa | 0 mm | - | 142 W/m² | - |
| 1777386800 | 13.89° C | 62% | 1021.3 hPa | 0 mm | - | 127 W/m² | - |
| 1777386497 | 13.33° C | 62% | 1021.3 hPa | 0 mm | - | 116 W/m² | - |
| 1777386194 | 12.78° C | 64% | 1021.4 hPa | 0 mm | - | 103 W/m² | - |
| 1777385891 | 12.78° C | 63% | 1021.3 hPa | 0 mm | - | 93 W/m² | - |
| 1777385587 | 12.78° C | 64% | 1021.3 hPa | 0 mm | - | 82 W/m² | - |
| 1777385285 | 12.22° C | 66% | 1021.1 hPa | 0 mm | - | 73 W/m² | - |
| 1777384980 | 12.22° C | 68% | 1020.8 hPa | 0 mm | - | 62 W/m² | - |
* Rain latest hour (hover to see other rain measurements)
** Current wind speed in m/s (hover to see current wind gust speed)